Time,TemperatureF,DewpointF,PressureIn,WindDirection,WindDirectionDegrees,WindSpeedMPH,WindSpeedGustMPH,Humidity,HourlyPrecipIn,Conditions,Clouds,dailyrainin,SoftwareType,DateUTC
2013-05-06 00:00:00,53.7,38.4,29.99,NNW,327,0.0,3.0,56,0.00,,SCT250,0.00,VWS V14.01,2013-05-06 05:00:00,
2013-05-06 00:04:00,53.9,38.6,29.99,NNW,339,0.0,3.0,56,0.00,,SCT250,0.00,VWS V14.01,2013-05-06 05:04:00,
2013-05-06 00:05:00,53.9,38.6,29.98,NNW,341,0.0,3.0,56,0.00,,SCT250,0.00,VWS V14.01,2013-05-06 05:05:00,
2013-05-06 00:09:00,54.2,38.4,29.99,NNW,341,2.0,6.0,55,0.00,,SCT250,0.00,VWS V14.01,2013-05-06 05:09:00,
2013-05-06 00:10:00,54.2,38.4,29.98,NNW,339,0.0,6.0,55,0.00,,SCT250,0.00,VWS V14.01,2013-05-06 05:10:00,
2013-05-06 00:15:00,54.4,38.1,29.98,NNW,337,2.0,8.0,54,0.00,,SCT250,0.00,VWS V14.01,2013-05-06 05:15:00,
2013-05-06 00:20:00,54.4,38.6,29.98,NNW,331,1.0,3.0,55,0.00,,SCT250,0.00,VWS V14.01,2013-05-06 05:20:00,
2013-05-06 00:25:00,54.3,38.5,29.98,NNW,336,2.0,4.0,55,0.00,,SCT250,0.00,VWS V14.01,2013-05-06 05:25:00,
2013-05-06 00:30:00,54.3,38.5,29.98,NNW,329,0.0,3.0,55,0.00,,SCT250,0.00,VWS V14.01,2013-05-06 05:30:00,
2013-05-06 00:35:00,54.3,38.5,29.98,NNW,338,3.0,5.0,55,0.00,,SCT250,0.00,VWS V14.01,2013-05-06 05:35:00,
2013-05-06 00:40:00,54.4,38.1,29.98,NNW,342,1.0,6.0,54,0.00,,SCT250,0.00,VWS V14.01,2013-05-06 05:40:00,
2013-05-06 00:45:00,54.6,38.3,29.98,NNE,12,0.0,5.0,54,0.00,,SCT250,0.00,VWS V14.01,2013-05-06 05:45:00,
2013-05-06 00:50:00,54.6,37.8,29.98,North,10,0.0,3.0,53,0.00,,SCT250,0.00,VWS V14.01,2013-05-06 05:50:00,
2013-05-06 00:55:00,55.0,38.2,29.98,North,9,0.0,6.0,53,0.00,,SCT250,0.00,VWS V14.01,2013-05-06 05:55:00,
2013-05-06 01:00:00,55.5,37.7,29.98,NNE,17,4.0,9.0,51,0.00,,SCT250,0.00,VWS V14.01,2013-05-06 06:00:00,
2013-05-06 01:05:00,56.0,38.2,29.98,NE,53,9.0,11.0,51,0.00,,FEW250,0.00,VWS V14.01,2013-05-06 06:05:00,
2013-05-06 01:10:00,56.1,37.7,29.98,NNE,25,0.0,7.0,50,0.00,,FEW250,0.00,VWS V14.01,2013-05-06 06:10:00,
2013-05-06 01:15:00,56.0,38.2,29.98,North,360,0.0,6.0,51,0.00,,FEW250,0.00,VWS V14.01,2013-05-06 06:15:00,
2013-05-06 01:20:00,55.9,38.0,29.98,NNE,24,2.0,7.0,51,0.00,,FEW250,0.00,VWS V14.01,2013-05-06 06:20:00,
2013-05-06 01:25:00,55.8,38.0,29.98,NNE,28,2.0,6.0,51,0.00,,SCT250,0.00,VWS V14.01,2013-05-06 06:25:00,
2013-05-06 01:26:00,55.8,38.0,29.98,NNE,13,3.0,8.0,51,0.00,,FEW250,0.00,VWS V14.01,2013-05-06 06:26:00,
2013-05-06 01:30:00,55.7,37.9,29.98,NNE,13,2.0,9.0,51,0.00,,SCT250,0.00,VWS V14.01,2013-05-06 06:30:00,
2013-05-06 01:31:00,55.7,37.9,29.98,North,360,3.0,10.0,51,0.00,,FEW250,0.00,VWS V14.01,2013-05-06 06:31:00,
2013-05-06 01:35:00,55.5,37.7,29.98,North,360,4.0,10.0,51,0.00,,SCT250,0.00,VWS V14.01,2013-05-06 06:35:00,
2013-05-06 01:36:00,55.5,37.7,29.97,North,360,4.0,9.0,51,0.00,,FEW250,0.00,VWS V14.01,2013-05-06 06:36:00,
2013-05-06 01:40:00,55.4,37.6,29.97,NNW,336,2.0,8.0,51,0.00,,SCT250,0.00,VWS V14.01,2013-05-06 06:40:00,
2013-05-06 01:41:00,55.2,37.9,29.97,North,349,2.0,6.0,52,0.00,,FEW250,0.00,VWS V14.01,2013-05-06 06:41:00,
2013-05-06 01:45:00,54.9,37.6,29.97,NNW,346,0.0,6.0,52,0.00,,SCT250,0.00,VWS V14.01,2013-05-06 06:45:00,
2013-05-06 01:46:00,54.6,37.8,29.97,NNW,346,0.0,3.0,53,0.00,,FEW250,0.00,VWS V14.01,2013-05-06 06:46:00,
2013-05-06 01:50:00,54.3,38.0,29.97,NNW,348,0.0,0.0,54,0.00,,SCT250,0.00,VWS V14.01,2013-05-06 06:50:00,
2013-05-06 01:51:00,54.1,37.8,29.97,North,355,1.0,2.0,54,0.00,,FEW250,0.00,VWS V14.01,2013-05-06 06:51:00,
2013-05-06 01:55:00,53.9,38.1,29.97,North,5,0.0,4.0,55,0.00,,SCT250,0.00,VWS V14.01,2013-05-06 06:55:00,
2013-05-06 01:56:00,53.9,38.1,29.97,North,5,0.0,4.0,55,0.00,,FEW250,0.00,VWS V14.01,2013-05-06 06:56:00,
2013-05-06 02:00:00,53.8,38.0,29.97,North,5,5.0,8.0,55,0.00,,SCT250,0.00,VWS V14.01,2013-05-06 07:00:00,
2013-05-06 02:01:00,53.9,38.1,29.97,NNE,18,0.0,8.0,55,0.00,,FEW250,0.00,VWS V14.01,2013-05-06 07:01:00,
2013-05-06 02:05:00,53.8,38.0,29.97,North,360,2.0,3.0,55,0.00,,SCT250,0.00,VWS V14.01,2013-05-06 07:05:00,
2013-05-06 02:06:00,53.7,37.9,29.97,NNW,348,1.0,5.0,55,0.00,,FEW250,0.00,VWS V14.01,2013-05-06 07:06:00,
2013-05-06 02:10:00,53.6,37.8,29.97,North,351,0.0,5.0,55,0.00,,SCT250,0.00,VWS V14.01,2013-05-06 07:10:00,
2013-05-06 02:11:00,53.5,38.2,29.97,North,355,3.0,3.0,56,0.00,,FEW250,0.00,VWS V14.01,2013-05-06 07:11:00,
2013-05-06 02:15:00,53.4,38.1,29.96,North,355,1.0,5.0,56,0.00,,SCT250,0.00,VWS V14.01,2013-05-06 07:15:00,
2013-05-06 02:16:00,53.2,38.4,29.96,NNW,345,3.0,5.0,57,0.00,,FEW250,0.00,VWS V14.01,2013-05-06 07:16:00,
2013-05-06 02:20:00,53.0,38.2,29.96,NNW,345,0.0,4.0,57,0.00,,SCT250,0.00,VWS V14.01,2013-05-06 07:20:00,
2013-05-06 02:21:00,52.8,38.0,29.96,NNW,345,0.0,1.0,57,0.00,,FEW250,0.00,VWS V14.01,2013-05-06 07:21:00,
2013-05-06 02:25:00,52.8,38.0,29.97,NNW,345,0.0,0.0,57,0.00,,SCT250,0.00,VWS V14.01,2013-05-06 07:25:00,
2013-05-06 02:26:00,52.7,38.3,29.97,NNW,347,0.0,1.0,58,0.00,,FEW250,0.00,VWS V14.01,2013-05-06 07:26:00,
2013-05-06 02:30:00,52.6,38.3,29.96,NNW,347,0.0,1.0,58,0.00,,SCT250,0.00,VWS V14.01,2013-05-06 07:30:00,
2013-05-06 02:31:00,52.5,38.2,29.96,NNW,347,0.0,0.0,58,0.00,,FEW250,0.00,VWS V14.01,2013-05-06 07:31:00,
2013-05-06 02:35:00,52.5,38.2,29.97,NNW,347,0.0,0.0,58,0.00,,SCT250,0.00,VWS V14.01,2013-05-06 07:35:00,
2013-05-06 02:36:00,52.5,38.2,29.97,NNW,347,0.0,0.0,58,0.00,,FEW250,0.00,VWS V14.01,2013-05-06 07:36:00,
2013-05-06 02:40:00,52.6,38.3,29.96,NNW,347,0.0,0.0,58,0.00,,SCT250,0.00,VWS V14.01,2013-05-06 07:40:00,
2013-05-06 02:41:00,52.7,38.3,29.96,North,360,1.0,4.0,58,0.00,,FEW250,0.00,VWS V14.01,2013-05-06 07:41:00,
2013-05-06 02:45:00,52.8,38.5,29.96,NNE,25,0.0,4.0,58,0.00,,SCT250,0.00,VWS V14.01,2013-05-06 07:45:00,
2013-05-06 02:47:00,53.0,38.6,29.96,NNE,24,3.0,4.0,58,0.00,,FEW250,0.00,VWS V14.01,2013-05-06 07:47:00,
2013-05-06 02:50:00,53.1,38.3,29.96,NE,36,0.0,5.0,57,0.00,,SCT250,0.00,VWS V14.01,2013-05-06 07:50:00,
2013-05-06 02:52:00,53.3,38.5,29.96,NE,36,0.0,5.0,57,0.00,,FEW250,0.00,VWS V14.01,2013-05-06 07:52:00,
2013-05-06 02:55:00,53.3,38.5,29.96,NE,34,0.0,4.0,57,0.00,,SCT250,0.00,VWS V14.01,2013-05-06 07:55:00,
2013-05-06 02:57:00,53.3,38.5,29.96,NNE,22,3.0,4.0,57,0.00,,FEW250,0.00,VWS V14.01,2013-05-06 07:57:00,
2013-05-06 03:00:00,53.3,38.5,29.96,NNE,22,5.0,5.0,57,0.00,,SCT250,0.00,VWS V14.01,2013-05-06 08:00:00,
2013-05-06 03:02:00,53.4,38.6,29.96,NNE,33,0.0,6.0,57,0.00,,FEW250,0.00,VWS V14.01,2013-05-06 08:02:00,
2013-05-06 03:05:00,53.3,38.9,29.96,NE,34,0.0,6.0,58,0.00,,SCT250,0.00,VWS V14.01,2013-05-06 08:05:00,
2013-05-06 03:07:00,53.2,38.8,29.96,NE,34,0.0,0.0,58,0.00,,FEW250,0.00,VWS V14.01,2013-05-06 08:07:00,
2013-05-06 03:10:00,53.1,38.7,29.96,NE,34,0.0,0.0,58,0.00,,SCT250,0.00,VWS V14.01,2013-05-06 08:10:00,
2013-05-06 03:12:00,52.9,38.5,29.96,NNE,33,0.0,1.0,58,0.00,,FEW250,0.00,VWS V14.01,2013-05-06 08:12:00,
2013-05-06 03:15:00,52.8,38.5,29.96,NNE,32,0.0,1.0,58,0.00,,SCT250,0.00,VWS V14.01,2013-05-06 08:15:00,
2013-05-06 03:17:00,52.5,38.6,29.96,NNE,32,0.0,1.0,59,0.00,,FEW250,0.00,VWS V14.01,2013-05-06 08:17:00,
2013-05-06 03:20:00,52.4,38.5,29.96,NNE,32,0.0,0.0,59,0.00,,SCT250,0.00,VWS V14.01,2013-05-06 08:20:00,
2013-05-06 03:22:00,52.2,38.8,29.96,NNE,32,0.0,0.0,60,0.00,,FEW250,0.00,VWS V14.01,2013-05-06 08:22:00,
2013-05-06 03:25:00,52.1,38.7,29.96,NNE,32,0.0,0.0,60,0.00,,SCT250,0.00,VWS V14.01,2013-05-06 08:25:00,
2013-05-06 03:27:00,51.8,38.8,29.96,NNE,32,0.0,0.0,61,0.00,,FEW250,0.00,VWS V14.01,2013-05-06 08:27:00,
2013-05-06 03:30:00,51.7,38.7,29.96,NNE,30,0.0,1.0,61,0.00,,SCT250,0.00,VWS V14.01,2013-05-06 08:30:00,
2013-05-06 03:32:00,51.5,38.5,29.96,NNE,30,0.0,0.0,61,0.00,,FEW250,0.00,VWS V14.01,2013-05-06 08:32:00,
2013-05-06 03:35:00,51.3,38.7,29.96,NNE,30,0.0,0.0,62,0.00,,SCT250,0.00,VWS V14.01,2013-05-06 08:35:00,
2013-05-06 03:37:00,51.0,38.5,29.97,NNE,30,0.0,0.0,62,0.00,,FEW250,0.00,VWS V14.01,2013-05-06 08:37:00,
2013-05-06 03:40:00,51.0,38.5,29.96,NNE,30,0.0,0.0,62,0.00,,SCT250,0.00,VWS V14.01,2013-05-06 08:40:00,
2013-05-06 03:42:00,50.8,38.7,29.97,NNE,30,0.0,0.0,63,0.00,,FEW250,0.00,VWS V14.01,2013-05-06 08:42:00,
2013-05-06 03:45:00,50.7,38.6,29.97,NNE,30,0.0,0.0,63,0.00,,SCT250,0.00,VWS V14.01,2013-05-06 08:45:00,
2013-05-06 03:47:00,50.6,38.5,29.96,NNE,30,0.0,0.0,63,0.00,,FEW250,0.00,VWS V14.01,2013-05-06 08:47:00,
2013-05-06 03:50:00,50.6,38.9,29.97,NNE,30,0.0,0.0,64,0.00,,SCT250,0.00,VWS V14.01,2013-05-06 08:50:00,
2013-05-06 03:52:00,50.4,38.7,29.97,NNE,29,0.0,0.0,64,0.00,,FEW250,0.00,VWS V14.01,2013-05-06 08:52:00,
2013-05-06 03:55:00,50.3,39.0,29.97,NNE,30,1.0,1.0,65,0.00,,SCT250,0.00,VWS V14.01,2013-05-06 08:55:00,
2013-05-06 03:58:00,50.0,42.0,29.97,NNE,30,0.0,1.0,74,0.00,,FEW250,0.00,VWS V14.01,2013-05-06 08:58:00,
2013-05-06 04:00:00,49.8,42.2,29.97,NNE,30,0.0,0.0,75,0.00,,SCT250,0.00,VWS V14.01,2013-05-06 09:00:00,
2013-05-06 04:03:00,49.3,42.4,29.97,NNE,30,0.0,0.0,77,0.00,,FEW250,0.00,VWS V14.01,2013-05-06 09:03:00,
2013-05-06 04:05:00,49.2,42.3,29.97,NNE,30,0.0,0.0,77,0.00,,SCT250,0.00,VWS V14.01,2013-05-06 09:05:00,
2013-05-06 04:08:00,49.0,42.5,29.97,NNE,30,0.0,0.0,78,0.00,,FEW250,0.00,VWS V14.01,2013-05-06 09:08:00,
2013-05-06 04:10:00,49.0,42.5,29.97,NNE,30,0.0,0.0,78,0.00,,SCT250,0.00,VWS V14.01,2013-05-06 09:10:00,
2013-05-06 04:13:00,49.0,42.5,29.97,NNE,30,0.0,0.0,78,0.00,,FEW250,0.00,VWS V14.01,2013-05-06 09:13:00,
2013-05-06 04:15:00,49.0,42.5,29.97,NNE,30,0.0,0.0,78,0.00,,SCT250,0.00,VWS V14.01,2013-05-06 09:15:00,
2013-05-06 04:18:00,48.9,42.0,29.97,NNE,30,0.0,0.0,77,0.00,,FEW250,0.00,VWS V14.01,2013-05-06 09:18:00,
2013-05-06 04:20:00,48.9,42.0,29.97,NNE,30,0.0,0.0,77,0.00,,SCT250,0.00,VWS V14.01,2013-05-06 09:20:00,
2013-05-06 04:23:00,48.7,41.8,29.97,NNE,30,0.0,0.0,77,0.00,,FEW250,0.00,VWS V14.01,2013-05-06 09:23:00,
2013-05-06 04:25:00,48.7,41.8,29.97,NNE,30,0.0,0.0,77,0.00,,SCT250,0.00,VWS V14.01,2013-05-06 09:25:00,
2013-05-06 04:28:00,48.6,41.4,29.97,NNE,30,0.0,0.0,76,0.00,,FEW250,0.00,VWS V14.01,2013-05-06 09:28:00,
2013-05-06 04:30:00,48.6,41.7,29.97,NNE,30,0.0,0.0,77,0.00,,SCT250,0.00,VWS V14.01,2013-05-06 09:30:00,
2013-05-06 04:33:00,48.3,42.4,29.97,NNE,30,0.0,2.0,80,0.00,,FEW250,0.00,VWS V14.01,2013-05-06 09:33:00,
2013-05-06 04:35:00,48.3,42.4,29.97,NNE,30,0.0,2.0,80,0.00,,SCT250,0.00,VWS V14.01,2013-05-06 09:35:00,
2013-05-06 04:38:00,48.2,42.3,29.97,NNE,30,0.0,0.0,80,0.00,,FEW250,0.00,VWS V14.01,2013-05-06 09:38:00,
2013-05-06 04:40:00,48.2,42.3,29.97,NNE,30,0.0,0.0,80,0.00,,SCT250,0.00,VWS V14.01,2013-05-06 09:40:00,
2013-05-06 04:43:00,48.1,41.9,29.97,NNE,30,0.0,0.0,79,0.00,,FEW250,0.00,VWS V14.01,2013-05-06 09:43:00,
2013-05-06 04:45:00,48.1,41.9,29.97,NNE,30,0.0,0.0,79,0.00,,SCT250,0.00,VWS V14.01,2013-05-06 09:45:00,
2013-05-06 04:48:00,48.2,41.0,29.97,NNE,30,0.0,0.0,76,0.00,,FEW250,0.00,VWS V14.01,2013-05-06 09:48:00,
2013-05-06 04:50:00,48.2,41.0,29.97,NNE,30,0.0,0.0,76,0.00,,SCT250,0.00,VWS V14.01,2013-05-06 09:50:00,
2013-05-06 04:53:00,48.3,41.4,29.98,NNE,30,0.0,0.0,77,0.00,,FEW250,0.00,VWS V14.01,2013-05-06 09:53:00,
2013-05-06 04:55:00,48.3,41.4,29.98,NNE,30,0.0,0.0,77,0.00,,SCT250,0.00,VWS V14.01,2013-05-06 09:55:00,
2013-05-06 04:58:00,48.2,41.3,29.97,NNE,30,0.0,0.0,77,0.00,,FEW250,0.00,VWS V14.01,2013-05-06 09:58:00,
2013-05-06 05:00:00,48.2,41.0,29.97,NNE,30,0.0,0.0,76,0.00,,SCT250,0.00,VWS V14.01,2013-05-06 10:00:00,
2013-05-06 05:03:00,48.3,40.4,29.98,NNE,30,0.0,0.0,74,0.00,,BKN250,0.00,VWS V14.01,2013-05-06 10:03:00,
2013-05-06 05:05:00,48.3,40.4,29.98,NNE,30,0.0,0.0,74,0.00,,SCT250,0.00,VWS V14.01,2013-05-06 10:05:00,
2013-05-06 05:08:00,48.6,40.0,29.97,NNE,29,0.0,0.0,72,0.00,,BKN250,0.00,VWS V14.01,2013-05-06 10:08:00,
2013-05-06 05:10:00,48.6,40.0,29.97,NNE,29,0.0,0.0,72,0.00,,SCT250,0.00,VWS V14.01,2013-05-06 10:10:00,
2013-05-06 05:13:00,48.7,39.4,29.98,NNE,29,0.0,1.0,70,0.00,,BKN250,0.00,VWS V14.01,2013-05-06 10:13:00,
2013-05-06 05:15:00,48.7,39.4,29.98,NNE,29,0.0,1.0,70,0.00,,SCT250,0.00,VWS V14.01,2013-05-06 10:15:00,
2013-05-06 05:18:00,48.8,39.5,29.98,NNE,29,0.0,0.0,70,0.00,,BKN250,0.00,VWS V14.01,2013-05-06 10:18:00,
2013-05-06 05:20:00,48.8,39.5,29.98,NNE,29,0.0,0.0,70,0.00,,SCT250,0.00,VWS V14.01,2013-05-06 10:20:00,
2013-05-06 05:24:00,48.9,39.2,29.98,NNE,27,0.0,0.0,69,0.00,,BKN250,0.00,VWS V14.01,2013-05-06 10:24:00,
2013-05-06 05:25:00,48.9,39.2,29.98,NNE,27,0.0,0.0,69,0.00,,SCT250,0.00,VWS V14.01,2013-05-06 10:25:00,
2013-05-06 05:29:00,49.0,40.4,29.98,NNE,27,0.0,0.0,72,0.00,,BKN250,0.00,VWS V14.01,2013-05-06 10:29:00,
2013-05-06 05:30:00,49.0,40.4,29.98,NNE,27,0.0,0.0,72,0.00,,SCT250,0.00,VWS V14.01,2013-05-06 10:30:00,
2013-05-06 05:34:00,48.8,42.6,29.98,NNE,27,0.0,0.0,79,0.00,,BKN250,0.00,VWS V14.01,2013-05-06 10:34:00,
2013-05-06 05:35:00,48.8,42.6,29.98,NNE,27,0.0,0.0,79,0.00,,SCT250,0.00,VWS V14.01,2013-05-06 10:35:00,
2013-05-06 05:39:00,48.5,41.6,29.98,NNE,27,0.0,0.0,77,0.00,,BKN250,0.00,VWS V14.01,2013-05-06 10:39:00,
2013-05-06 05:40:00,48.5,41.6,29.98,NNE,27,0.0,0.0,77,0.00,,SCT250,0.00,VWS V14.01,2013-05-06 10:40:00,
2013-05-06 05:44:00,48.5,41.6,29.99,NNE,27,0.0,2.0,77,0.00,,BKN250,0.00,VWS V14.01,2013-05-06 10:44:00,
2013-05-06 05:45:00,48.5,41.6,29.99,NNE,27,0.0,2.0,77,0.00,,SCT250,0.00,VWS V14.01,2013-05-06 10:45:00,
2013-05-06 05:49:00,48.7,41.1,29.99,NNE,27,0.0,4.0,75,0.00,,BKN250,0.00,VWS V14.01,2013-05-06 10:49:00,
2013-05-06 05:50:00,48.6,41.0,29.99,NNE,26,0.0,4.0,75,0.00,,SCT250,0.00,VWS V14.01,2013-05-06 10:50:00,
2013-05-06 05:54:00,48.9,40.3,29.99,NNE,28,0.0,4.0,72,0.00,,BKN250,0.00,VWS V14.01,2013-05-06 10:54:00,
2013-05-06 05:55:00,48.9,40.6,29.99,NNE,28,0.0,4.0,73,0.00,,SCT250,0.00,VWS V14.01,2013-05-06 10:55:00,
2013-05-06 05:59:00,49.0,39.7,29.99,NNE,28,0.0,0.0,70,0.00,,BKN250,0.00,VWS V14.01,2013-05-06 10:59:00,
2013-05-06 06:00:00,49.0,40.0,29.99,NNE,28,0.0,0.0,71,0.00,,SCT250,0.00,VWS V14.01,2013-05-06 11:00:00,
2013-05-06 06:04:00,49.1,39.4,29.99,NNE,28,0.0,0.0,69,0.00,,BKN250,0.00,VWS V14.01,2013-05-06 11:04:00,
2013-05-06 06:05:00,49.1,39.4,29.99,NNE,28,0.0,0.0,69,0.00,,SCT250,0.00,VWS V14.01,2013-05-06 11:05:00,
2013-05-06 06:09:00,49.1,39.4,29.99,NNE,28,0.0,0.0,69,0.00,,BKN250,0.00,VWS V14.01,2013-05-06 11:09:00,
2013-05-06 06:10:00,49.1,39.4,29.99,NNE,28,0.0,0.0,69,0.00,,SCT250,0.00,VWS V14.01,2013-05-06 11:10:00,
2013-05-06 06:14:00,49.1,39.4,30.00,NNE,28,0.0,0.0,69,0.00,,BKN250,0.00,VWS V14.01,2013-05-06 11:14:00,
2013-05-06 06:15:00,49.1,39.4,30.00,NNE,28,0.0,0.0,69,0.00,,SCT250,0.00,VWS V14.01,2013-05-06 11:15:00,
2013-05-06 06:19:00,49.2,42.0,30.00,NNE,29,0.0,3.0,76,0.00,,BKN250,0.00,VWS V14.01,2013-05-06 11:19:00,
2013-05-06 06:20:00,49.2,41.6,30.00,NNE,29,0.0,3.0,75,0.00,,SCT250,0.00,VWS V14.01,2013-05-06 11:20:00,
2013-05-06 06:24:00,49.0,42.5,30.00,NNE,29,0.0,0.0,78,0.00,,BKN250,0.00,VWS V14.01,2013-05-06 11:24:00,
2013-05-06 06:25:00,49.0,42.5,30.00,NNE,29,0.0,0.0,78,0.00,,SCT250,0.00,VWS V14.01,2013-05-06 11:25:00,
2013-05-06 06:29:00,48.8,42.6,30.00,NNE,29,0.0,0.0,79,0.00,,BKN250,0.00,VWS V14.01,2013-05-06 11:29:00,
2013-05-06 06:30:00,48.8,42.6,30.00,NNE,29,0.0,0.0,79,0.00,,SCT250,0.00,VWS V14.01,2013-05-06 11:30:00,
2013-05-06 06:34:00,49.0,42.1,30.00,NNE,13,6.0,7.0,77,0.00,,BKN250,0.00,VWS V14.01,2013-05-06 11:34:00,
2013-05-06 06:35:00,48.9,42.0,30.00,NNE,26,0.0,5.0,77,0.00,,SCT250,0.00,VWS V14.01,2013-05-06 11:35:00,
2013-05-06 06:39:00,49.1,42.5,30.00,NNE,32,0.0,7.0,78,0.00,,BKN250,0.00,VWS V14.01,2013-05-06 11:39:00,
2013-05-06 06:40:00,49.1,42.5,30.00,NNE,31,0.0,7.0,78,0.00,,SCT250,0.00,VWS V14.01,2013-05-06 11:40:00,
2013-05-06 06:45:00,48.9,42.3,30.00,NNE,26,0.0,7.0,78,0.00,,BKN250,0.00,VWS V14.01,2013-05-06 11:45:00,
2013-05-06 06:50:00,48.8,42.6,30.01,North,355,0.0,3.0,79,0.00,,BKN250,0.00,VWS V14.01,2013-05-06 11:50:00,
2013-05-06 06:55:00,48.8,41.9,30.01,NNE,17,2.0,8.0,77,0.00,,BKN250,0.00,VWS V14.01,2013-05-06 11:55:00,
2013-05-06 07:00:00,49.3,42.4,30.01,NNE,31,3.0,8.0,77,0.00,,BKN250,0.00,VWS V14.01,2013-05-06 12:00:00,
2013-05-06 07:05:00,49.4,42.8,30.01,NE,34,0.0,5.0,78,0.00,,BKN250,0.00,VWS V14.01,2013-05-06 12:05:00,
2013-05-06 07:10:00,49.9,42.7,30.01,NNE,24,0.0,3.0,76,0.00,,BKN250,0.00,VWS V14.01,2013-05-06 12:10:00,
2013-05-06 07:15:00,50.4,42.8,30.01,NNE,31,0.0,8.0,75,0.00,,BKN250,0.00,VWS V14.01,2013-05-06 12:15:00,
2013-05-06 07:20:00,49.8,42.9,30.02,NNE,23,2.0,7.0,77,0.00,,BKN250,0.00,VWS V14.01,2013-05-06 12:20:00,
2013-05-06 07:25:00,49.3,42.7,30.02,NNE,23,6.0,6.0,78,0.00,,BKN250,0.00,VWS V14.01,2013-05-06 12:25:00,
2013-05-06 07:30:00,49.3,42.7,30.01,North,355,0.0,5.0,78,0.00,,BKN250,0.00,VWS V14.01,2013-05-06 12:30:00,
2013-05-06 07:35:00,50.0,42.7,30.02,NNE,33,0.0,7.0,76,0.00,,BKN250,0.00,VWS V14.01,2013-05-06 12:35:00,
2013-05-06 07:40:00,50.8,42.5,30.02,NNE,13,0.0,5.0,73,0.00,,BKN250,0.00,VWS V14.01,2013-05-06 12:40:00,
2013-05-06 07:45:00,51.9,42.8,30.02,North,350,0.0,5.0,71,0.00,,BKN250,0.00,VWS V14.01,2013-05-06 12:45:00,
2013-05-06 07:50:00,52.3,43.5,30.02,NNE,24,0.0,3.0,72,0.00,,BKN250,0.00,VWS V14.01,2013-05-06 12:50:00,
2013-05-06 07:55:00,52.7,43.9,30.02,NNE,26,0.0,0.0,72,0.00,,BKN250,0.00,VWS V14.01,2013-05-06 12:55:00,
2013-05-06 08:00:00,52.9,44.5,30.02,NE,34,0.0,0.0,73,0.00,,SCT250,0.00,VWS V14.01,2013-05-06 13:00:00,
2013-05-06 08:01:00,52.7,44.7,30.02,NE,40,0.0,5.0,74,0.00,,BKN250,0.00,VWS V14.01,2013-05-06 13:01:00,
2013-05-06 08:05:00,51.9,44.2,30.02,NE,40,0.0,5.0,75,0.00,,SCT250,0.00,VWS V14.01,2013-05-06 13:05:00,
2013-05-06 08:06:00,51.5,44.5,30.02,NE,42,0.0,4.0,77,0.00,,BKN250,0.00,VWS V14.01,2013-05-06 13:06:00,
2013-05-06 08:10:00,51.1,44.2,30.02,NE,40,0.0,4.0,77,0.00,,SCT250,0.00,VWS V14.01,2013-05-06 13:10:00,
2013-05-06 08:11:00,50.9,44.3,30.02,NE,54,1.0,6.0,78,0.00,,BKN250,0.00,VWS V14.01,2013-05-06 13:11:00,
2013-05-06 08:15:00,50.4,43.8,30.02,NE,53,3.0,7.0,78,0.00,,SCT250,0.00,VWS V14.01,2013-05-06 13:15:00,
2013-05-06 08:16:00,50.4,44.1,30.02,NE,43,6.0,6.0,79,0.00,,BKN250,0.00,VWS V14.01,2013-05-06 13:16:00,
2013-05-06 08:20:00,50.6,44.0,30.02,NE,42,2.0,7.0,78,0.00,,SCT250,0.00,VWS V14.01,2013-05-06 13:20:00,
2013-05-06 08:21:00,50.5,44.2,30.02,NE,48,0.0,7.0,79,0.00,,BKN250,0.00,VWS V14.01,2013-05-06 13:21:00,
2013-05-06 08:25:00,50.4,43.8,30.02,North,5,0.0,7.0,78,0.00,,SCT250,0.00,VWS V14.01,2013-05-06 13:25:00,
2013-05-06 08:26:00,50.7,44.1,30.02,NE,34,3.0,7.0,78,0.00,,BKN250,0.00,VWS V14.01,2013-05-06 13:26:00,
2013-05-06 08:30:00,51.2,43.2,30.02,NE,40,4.0,9.0,74,0.00,,SCT250,0.00,VWS V14.01,2013-05-06 13:30:00,
2013-05-06 08:31:00,51.7,43.3,30.02,North,9,4.0,9.0,73,0.00,,BKN250,0.00,VWS V14.01,2013-05-06 13:31:00,
2013-05-06 08:35:00,52.3,43.5,30.02,NNE,15,3.0,10.0,72,0.00,,SCT250,0.00,VWS V14.01,2013-05-06 13:35:00,
2013-05-06 08:36:00,52.8,43.3,30.03,NNE,27,0.0,10.0,70,0.00,,BKN250,0.00,VWS V14.01,2013-05-06 13:36:00,
2013-05-06 08:40:00,53.1,44.0,30.03,North,360,7.0,8.0,71,0.00,,SCT250,0.00,VWS V14.01,2013-05-06 13:40:00,
2013-05-06 08:41:00,53.2,43.7,30.03,NNE,30,8.0,8.0,70,0.00,,BKN250,0.00,VWS V14.01,2013-05-06 13:41:00,
2013-05-06 08:45:00,53.2,43.3,30.03,NNE,20,2.0,8.0,69,0.00,,SCT250,0.00,VWS V14.01,2013-05-06 13:45:00,
2013-05-06 08:46:00,53.3,43.4,30.03,NNE,24,5.0,9.0,69,0.00,,BKN250,0.00,VWS V14.01,2013-05-06 13:46:00,
2013-05-06 08:50:00,53.5,43.6,30.03,NNE,33,0.0,9.0,69,0.00,,SCT250,0.00,VWS V14.01,2013-05-06 13:50:00,
2013-05-06 08:51:00,53.6,44.1,30.03,NE,35,0.0,6.0,70,0.00,,BKN250,0.00,VWS V14.01,2013-05-06 13:51:00,
2013-05-06 08:55:00,53.8,43.9,30.03,NE,39,6.0,7.0,69,0.00,,SCT250,0.00,VWS V14.01,2013-05-06 13:55:00,
2013-05-06 08:56:00,54.0,43.3,30.03,NE,51,2.0,9.0,67,0.00,,BKN250,0.00,VWS V14.01,2013-05-06 13:56:00,
2013-05-06 09:00:00,54.0,43.3,30.03,NNE,28,7.0,8.0,67,0.00,,SCT250,0.00,VWS V14.01,2013-05-06 14:00:00,
2013-05-06 09:01:00,54.0,42.9,30.03,NNE,15,9.0,9.0,66,0.00,,BKN250,0.00,VWS V14.01,2013-05-06 14:01:00,
2013-05-06 09:05:00,54.3,43.6,30.03,NE,37,5.0,10.0,67,0.00,,SCT250,0.00,VWS V14.01,2013-05-06 14:05:00,
2013-05-06 09:06:00,54.5,44.2,30.03,NNE,28,0.0,7.0,68,0.00,,BKN250,0.00,VWS V14.01,2013-05-06 14:06:00,
2013-05-06 09:10:00,54.2,44.3,30.03,NE,36,0.0,8.0,69,0.00,,SCT250,0.00,VWS V14.01,2013-05-06 14:10:00,
2013-05-06 09:11:00,53.9,44.0,30.03,NE,49,1.0,8.0,69,0.00,,BKN250,0.00,VWS V14.01,2013-05-06 14:11:00,
2013-05-06 09:15:00,53.7,44.5,30.03,NE,51,3.0,8.0,71,0.00,,SCT250,0.00,VWS V14.01,2013-05-06 14:15:00,
2013-05-06 09:17:00,53.4,44.2,30.03,ENE,59,2.0,5.0,71,0.00,,BKN250,0.00,VWS V14.01,2013-05-06 14:17:00,
2013-05-06 09:20:00,53.2,43.7,30.03,NE,45,5.0,5.0,70,0.00,,SCT250,0.00,VWS V14.01,2013-05-06 14:20:00,
2013-05-06 09:22:00,53.0,44.2,30.03,NE,51,0.0,7.0,72,0.00,,BKN250,0.00,VWS V14.01,2013-05-06 14:22:00,
2013-05-06 09:25:00,52.6,43.8,30.03,ENE,63,7.0,8.0,72,0.00,,SCT250,0.00,VWS V14.01,2013-05-06 14:25:00,
2013-05-06 09:27:00,51.8,43.8,30.03,NE,45,7.0,8.0,74,0.00,,BKN250,0.00,VWS V14.01,2013-05-06 14:27:00,
2013-05-06 09:30:00,51.3,43.7,30.03,ENE,63,1.0,7.0,75,0.00,,SCT250,0.00,VWS V14.01,2013-05-06 14:30:00,
2013-05-06 09:32:00,50.7,43.8,30.03,NE,51,2.0,8.0,77,0.00,,BKN250,0.00,VWS V14.01,2013-05-06 14:32:00,
2013-05-06 09:35:00,50.5,43.9,30.03,NE,41,4.0,5.0,78,0.00,,SCT250,0.00,VWS V14.01,2013-05-06 14:35:00,
2013-05-06 09:37:00,50.8,43.9,30.03,NNE,30,3.0,7.0,77,0.00,,BKN250,0.00,VWS V14.01,2013-05-06 14:37:00,
2013-05-06 09:40:00,51.1,43.8,30.03,NNE,29,0.0,7.0,76,0.00,,SCT250,0.00,VWS V14.01,2013-05-06 14:40:00,
2013-05-06 09:42:00,51.7,43.7,30.03,NNE,29,3.0,6.0,74,0.00,,BKN250,0.00,VWS V14.01,2013-05-06 14:42:00,
2013-05-06 09:45:00,52.1,43.7,30.03,NE,44,7.0,7.0,73,0.00,,FEW250,0.00,VWS V14.01,2013-05-06 14:45:00,
2013-05-06 09:47:00,52.6,42.7,30.03,NNE,26,7.0,12.0,69,0.00,,BKN250,0.00,VWS V14.01,2013-05-06 14:47:00,
2013-05-06 09:50:00,52.8,42.5,30.03,North,5,0.0,12.0,68,0.00,,SCT250,0.00,VWS V14.01,2013-05-06 14:50:00,
2013-05-06 09:52:00,53.6,42.5,30.03,NNE,22,3.0,9.0,66,0.00,,BKN250,0.00,VWS V14.01,2013-05-06 14:52:00,
2013-05-06 09:55:00,53.9,42.4,30.03,North,5,1.0,9.0,65,0.00,,SCT250,0.00,VWS V14.01,2013-05-06 14:55:00,
2013-05-06 09:57:00,54.6,42.3,30.03,NNW,340,7.0,10.0,63,0.00,,BKN250,0.00,VWS V14.01,2013-05-06 14:57:00,
2013-05-06 10:00:00,54.7,42.4,30.03,North,360,6.0,10.0,63,0.00,,SCT250,0.00,VWS V14.01,2013-05-06 15:00:00,
2013-05-06 10:02:00,54.9,42.6,30.03,NNE,14,1.0,10.0,63,0.00,,BKN250,0.00,VWS V14.01,2013-05-06 15:02:00,
2013-05-06 10:05:00,54.9,43.0,30.03,NE,51,6.0,10.0,64,0.00,,SCT250,0.00,VWS V14.01,2013-05-06 15:05:00,
2013-05-06 10:07:00,54.6,43.1,30.03,NE,52,5.0,7.0,65,0.00,,BKN250,0.00,VWS V14.01,2013-05-06 15:07:00,
2013-05-06 10:10:00,54.4,42.9,30.03,NNE,31,4.0,8.0,65,0.00,,SCT250,0.00,VWS V14.01,2013-05-06 15:10:00,
2013-05-06 10:12:00,53.7,42.6,30.03,NNE,32,0.0,10.0,66,0.00,,BKN250,0.00,VWS V14.01,2013-05-06 15:12:00,
2013-05-06 10:15:00,53.7,42.6,30.03,NE,36,0.0,10.0,66,0.00,,SCT250,0.00,VWS V14.01,2013-05-06 15:15:00,
2013-05-06 10:17:00,54.2,42.7,30.03,NNE,32,0.0,8.0,65,0.00,,BKN250,0.00,VWS V14.01,2013-05-06 15:17:00,
2013-05-06 10:20:00,54.5,42.6,30.03,NNE,18,3.0,8.0,64,0.00,,SCT250,0.00,VWS V14.01,2013-05-06 15:20:00,
2013-05-06 10:22:00,55.7,41.2,30.03,NNE,28,5.0,10.0,58,0.00,,BKN250,0.00,VWS V14.01,2013-05-06 15:22:00,
2013-05-06 10:25:00,55.9,40.9,30.03,NE,36,8.0,10.0,57,0.00,,SCT250,0.00,VWS V14.01,2013-05-06 15:25:00,
2013-05-06 10:28:00,56.6,42.5,30.03,ENE,57,5.0,9.0,59,0.00,,BKN250,0.00,VWS V14.01,2013-05-06 15:28:00,
2013-05-06 10:30:00,56.7,42.5,30.03,NE,51,0.0,5.0,59,0.00,,SCT250,0.00,VWS V14.01,2013-05-06 15:30:00,
2013-05-06 10:33:00,55.6,43.2,30.03,NE,49,5.0,9.0,63,0.00,,BKN250,0.00,VWS V14.01,2013-05-06 15:33:00,
2013-05-06 10:35:00,55.2,43.2,30.03,NE,49,4.0,9.0,64,0.00,,SCT250,0.00,VWS V14.01,2013-05-06 15:35:00,
2013-05-06 10:38:00,53.5,43.2,30.03,NE,55,7.0,8.0,68,0.00,,BKN250,0.00,VWS V14.01,2013-05-06 15:38:00,
2013-05-06 10:40:00,53.2,43.3,30.03,NE,44,8.0,9.0,69,0.00,,SCT250,0.00,VWS V14.01,2013-05-06 15:40:00,
2013-05-06 10:43:00,52.3,43.2,30.03,NNE,27,4.0,9.0,71,0.00,,BKN250,0.00,VWS V14.01,2013-05-06 15:43:00,
2013-05-06 10:45:00,52.3,43.5,30.03,NNE,17,6.0,9.0,72,0.00,,SCT250,0.00,VWS V14.01,2013-05-06 15:45:00,
2013-05-06 10:48:00,52.7,43.6,30.02,NE,52,5.0,8.0,71,0.00,,BKN250,0.00,VWS V14.01,2013-05-06 15:48:00,
2013-05-06 10:50:00,52.8,43.3,30.02,NNE,24,5.0,8.0,70,0.00,,SCT250,0.00,VWS V14.01,2013-05-06 15:50:00,
2013-05-06 10:53:00,53.8,43.9,30.03,NE,38,0.0,5.0,69,0.00,,BKN250,0.00,VWS V14.01,2013-05-06 15:53:00,
2013-05-06 10:55:00,53.9,44.0,30.03,NE,39,0.0,4.0,69,0.00,,SCT250,0.00,VWS V14.01,2013-05-06 15:55:00,
2013-05-06 10:58:00,54.4,43.7,30.02,NE,39,0.0,5.0,67,0.00,,BKN250,0.00,VWS V14.01,2013-05-06 15:58:00,
2013-05-06 11:00:00,54.5,43.8,30.03,NE,42,2.0,5.0,67,0.00,,SCT250,0.00,VWS V14.01,2013-05-06 16:00:00,
2013-05-06 11:03:00,54.5,43.4,30.02,NE,52,4.0,7.0,66,0.00,,BKN250,0.00,VWS V14.01,2013-05-06 16:03:00,
2013-05-06 11:05:00,54.5,43.4,30.02,NE,51,4.0,7.0,66,0.00,,SCT250,0.00,VWS V14.01,2013-05-06 16:05:00,
2013-05-06 11:08:00,54.0,43.3,30.02,NE,37,5.0,10.0,67,0.00,,BKN250,0.00,VWS V14.01,2013-05-06 16:08:00,
2013-05-06 11:10:00,54.0,43.3,30.02,NE,41,0.0,10.0,67,0.00,,SCT250,0.00,VWS V14.01,2013-05-06 16:10:00,
2013-05-06 11:13:00,54.4,42.9,30.02,NNE,24,4.0,8.0,65,0.00,,BKN250,0.00,VWS V14.01,2013-05-06 16:13:00,
2013-05-06 11:15:00,54.5,43.0,30.02,NNE,26,4.0,8.0,65,0.00,,SCT250,0.00,VWS V14.01,2013-05-06 16:15:00,
2013-05-06 11:18:00,55.3,44.2,30.02,North,360,4.0,6.0,66,0.00,,BKN250,0.00,VWS V14.01,2013-05-06 16:18:00,
2013-05-06 11:20:00,55.4,44.2,30.02,NE,42,3.0,6.0,66,0.00,,SCT250,0.00,VWS V14.01,2013-05-06 16:20:00,
2013-05-06 11:23:00,55.3,43.3,30.02,NE,56,0.0,7.0,64,0.00,,BKN250,0.00,VWS V14.01,2013-05-06 16:23:00,
2013-05-06 11:25:00,55.3,43.3,30.02,NE,49,4.0,7.0,64,0.00,,SCT250,0.00,VWS V14.01,2013-05-06 16:25:00,
2013-05-06 11:28:00,55.5,43.9,30.02,NE,56,5.0,7.0,65,0.00,,BKN250,0.00,VWS V14.01,2013-05-06 16:28:00,
2013-05-06 11:30:00,55.5,43.9,30.02,NE,56,5.0,7.0,65,0.00,,SCT250,0.00,VWS V14.01,2013-05-06 16:30:00,
2013-05-06 11:34:00,55.3,42.9,30.02,NE,49,0.0,5.0,63,0.00,,BKN250,0.00,VWS V14.01,2013-05-06 16:34:00,
2013-05-06 11:35:00,55.3,42.9,30.02,NE,49,0.0,5.0,63,0.00,,SCT250,0.00,VWS V14.01,2013-05-06 16:35:00,
2013-05-06 11:39:00,55.7,42.9,30.02,NE,54,3.0,6.0,62,0.00,,BKN250,0.00,VWS V14.01,2013-05-06 16:39:00,
2013-05-06 11:40:00,55.7,42.9,30.02,NE,54,3.0,6.0,62,0.00,,SCT250,0.00,VWS V14.01,2013-05-06 16:40:00,
2013-05-06 11:44:00,55.6,43.2,30.02,NE,50,6.0,7.0,63,0.00,,BKN250,0.00,VWS V14.01,2013-05-06 16:44:00,
2013-05-06 11:45:00,55.6,43.2,30.02,NE,50,6.0,7.0,63,0.00,,SCT250,0.00,VWS V14.01,2013-05-06 16:45:00,
2013-05-06 11:49:00,55.6,43.2,30.01,NE,53,5.0,7.0,63,0.00,,BKN250,0.00,VWS V14.01,2013-05-06 16:49:00,
2013-05-06 11:50:00,55.6,43.2,30.01,NE,53,5.0,7.0,63,0.00,,SCT250,0.00,VWS V14.01,2013-05-06 16:50:00,
2013-05-06 11:54:00,56.0,43.2,30.01,NE,51,6.0,6.0,62,0.00,,BKN250,0.00,VWS V14.01,2013-05-06 16:54:00,
2013-05-06 11:55:00,56.0,43.2,30.01,NE,51,6.0,6.0,62,0.00,,SCT250,0.00,VWS V14.01,2013-05-06 16:55:00,
2013-05-06 11:59:00,55.8,42.6,30.01,NE,51,4.0,9.0,61,0.00,,BKN250,0.00,VWS V14.01,2013-05-06 16:59:00,
2013-05-06 12:00:00,55.8,42.6,30.01,NE,51,4.0,9.0,61,0.00,,SCT250,0.00,VWS V14.01,2013-05-06 17:00:00,
2013-05-06 12:04:00,55.5,43.1,30.01,NE,54,6.0,7.0,63,0.00,,BKN250,0.00,VWS V14.01,2013-05-06 17:04:00,
2013-05-06 12:05:00,55.4,43.0,30.01,NE,49,3.0,7.0,63,0.00,,SCT250,0.00,VWS V14.01,2013-05-06 17:05:00,
2013-05-06 12:09:00,55.5,43.1,30.01,ENE,77,0.0,7.0,63,0.00,,BKN250,0.00,VWS V14.01,2013-05-06 17:09:00,
2013-05-06 12:10:00,55.5,43.1,30.01,ENE,57,3.0,7.0,63,0.00,,SCT250,0.00,VWS V14.01,2013-05-06 17:10:00,
2013-05-06 12:14:00,54.6,43.5,30.01,ENE,57,4.0,8.0,66,0.00,,BKN250,0.00,VWS V14.01,2013-05-06 17:14:00,
2013-05-06 12:15:00,54.8,43.7,30.01,ENE,61,4.0,8.0,66,0.00,,SCT250,0.00,VWS V14.01,2013-05-06 17:15:00,
2013-05-06 12:19:00,54.0,43.3,30.01,ENE,61,5.0,10.0,67,0.00,,BKN250,0.00,VWS V14.01,2013-05-06 17:19:00,
2013-05-06 12:20:00,54.1,43.4,30.01,NE,48,6.0,10.0,67,0.00,,SCT250,0.00,VWS V14.01,2013-05-06 17:20:00,
2013-05-06 12:25:00,53.7,43.8,30.01,ENE,70,8.0,9.0,69,0.00,,BKN250,0.00,VWS V14.01,2013-05-06 17:25:00,
2013-05-06 12:30:00,53.6,44.4,30.01,ENE,67,9.0,9.0,71,0.00,,BKN250,0.00,VWS V14.01,2013-05-06 17:30:00,
2013-05-06 12:35:00,52.7,44.7,30.01,NE,56,2.0,9.0,74,0.00,,BKN250,0.00,VWS V14.01,2013-05-06 17:35:00,
2013-05-06 12:40:00,52.7,45.0,30.01,NNE,33,6.0,8.0,75,0.00,,BKN250,0.00,VWS V14.01,2013-05-06 17:40:00,
2013-05-06 12:45:00,52.5,44.5,30.00,NE,53,7.0,10.0,74,0.00,,BKN250,0.00,VWS V14.01,2013-05-06 17:45:00,
2013-05-06 12:50:00,51.7,44.4,30.00,ENE,69,0.0,9.0,76,0.00,,BKN250,0.00,VWS V14.01,2013-05-06 17:50:00,
2013-05-06 12:55:00,52.3,44.3,30.00,NE,47,4.0,7.0,74,0.00,,BKN250,0.00,VWS V14.01,2013-05-06 17:55:00,
2013-05-06 13:00:00,52.4,43.7,30.00,NNE,23,3.0,9.0,72,0.00,,BKN250,0.00,VWS V14.01,2013-05-06 18:00:00,
2013-05-06 13:05:00,52.4,43.3,30.00,NE,43,5.0,11.0,71,0.00,,BKN250,0.00,VWS V14.01,2013-05-06 18:05:00,
2013-05-06 13:10:00,52.6,43.1,30.00,North,360,8.0,10.0,70,0.00,,BKN250,0.00,VWS V14.01,2013-05-06 18:10:00,
2013-05-06 13:15:00,52.6,43.1,30.00,ENE,57,7.0,9.0,70,0.00,,BKN250,0.00,VWS V14.01,2013-05-06 18:15:00,
2013-05-06 13:20:00,52.6,43.8,30.00,NE,53,1.0,9.0,72,0.00,,BKN250,0.00,VWS V14.01,2013-05-06 18:20:00,
2013-05-06 13:25:00,52.9,44.1,30.00,ENE,76,5.0,9.0,72,0.00,,BKN250,0.00,VWS V14.01,2013-05-06 18:25:00,
2013-05-06 13:30:00,53.0,44.2,30.00,NE,46,3.0,8.0,72,0.00,,BKN250,0.00,VWS V14.01,2013-05-06 18:30:00,
2013-05-06 13:35:00,53.0,43.5,30.00,ENE,74,4.0,10.0,70,0.00,,SCT250,0.00,VWS V14.01,2013-05-06 18:35:00,
2013-05-06 13:36:00,52.8,43.7,30.00,NE,38,4.0,10.0,71,0.00,,BKN250,0.00,VWS V14.01,2013-05-06 18:36:00,
2013-05-06 13:40:00,52.6,42.3,30.00,NE,44,6.0,10.0,68,0.00,,SCT250,0.00,VWS V14.01,2013-05-06 18:40:00,
2013-05-06 13:41:00,52.8,43.7,30.00,North,360,5.0,10.0,71,0.00,,BKN250,0.00,VWS V14.01,2013-05-06 18:41:00,
2013-05-06 13:45:00,52.8,43.7,30.00,ENE,71,11.0,11.0,71,0.00,,SCT250,0.00,VWS V14.01,2013-05-06 18:45:00,
2013-05-06 13:46:00,52.3,43.5,29.99,NNE,32,6.0,12.0,72,0.00,,BKN250,0.00,VWS V14.01,2013-05-06 18:46:00,
2013-05-06 13:50:00,52.1,44.1,29.99,NE,54,5.0,10.0,74,0.00,,SCT250,0.00,VWS V14.01,2013-05-06 18:50:00,
2013-05-06 13:51:00,52.1,44.1,30.00,North,360,4.0,10.0,74,0.00,,BKN250,0.00,VWS V14.01,2013-05-06 18:51:00,
2013-05-06 13:55:00,52.2,44.9,30.00,NNE,22,8.0,9.0,76,0.00,,SCT250,0.00,VWS V14.01,2013-05-06 18:55:00,
2013-05-06 13:56:00,52.0,44.3,30.00,NE,53,4.0,9.0,75,0.00,,BKN250,0.00,VWS V14.01,2013-05-06 18:56:00,
2013-05-06 14:00:00,51.8,43.8,30.00,NE,54,5.0,10.0,74,0.00,,SCT250,0.00,VWS V14.01,2013-05-06 19:00:00,
2013-05-06 14:01:00,51.8,43.8,29.99,NNE,32,7.0,10.0,74,0.00,,BKN250,0.00,VWS V14.01,2013-05-06 19:01:00,
2013-05-06 14:05:00,51.9,44.2,30.00,NNE,14,1.0,9.0,75,0.00,,SCT250,0.00,VWS V14.01,2013-05-06 19:05:00,
2013-05-06 14:06:00,52.3,44.6,29.99,NE,55,0.0,9.0,75,0.00,,BKN250,0.00,VWS V14.01,2013-05-06 19:06:00,
2013-05-06 14:10:00,52.3,44.3,29.99,ENE,76,5.0,9.0,74,0.00,,SCT250,0.00,VWS V14.01,2013-05-06 19:10:00,
2013-05-06 14:11:00,52.4,44.4,29.99,NE,53,1.0,9.0,74,0.00,,BKN250,0.00,VWS V14.01,2013-05-06 19:11:00,
2013-05-06 14:15:00,52.4,44.0,29.99,ENE,62,4.0,8.0,73,0.00,,SCT250,0.00,VWS V14.01,2013-05-06 19:15:00,
2013-05-06 14:16:00,52.4,44.4,29.99,NNE,24,2.0,8.0,74,0.00,,BKN250,0.00,VWS V14.01,2013-05-06 19:16:00,
2013-05-06 14:20:00,52.4,44.0,29.99,NE,38,6.0,8.0,73,0.00,,SCT250,0.00,VWS V14.01,2013-05-06 19:20:00,
2013-05-06 14:21:00,52.5,44.5,29.99,North,360,1.0,8.0,74,0.00,,BKN250,0.00,VWS V14.01,2013-05-06 19:21:00,
2013-05-06 14:25:00,52.6,44.6,29.99,NE,52,0.0,7.0,74,0.00,,SCT250,0.00,VWS V14.01,2013-05-06 19:25:00,
2013-05-06 14:26:00,52.6,44.6,29.99,ENE,61,3.0,8.0,74,0.00,,BKN250,0.00,VWS V14.01,2013-05-06 19:26:00,
2013-05-06 14:30:00,52.6,44.2,29.99,NNE,16,0.0,8.0,73,0.00,,SCT250,0.00,VWS V14.01,2013-05-06 19:30:00,
2013-05-06 14:31:00,52.9,45.2,29.99,ENE,78,4.0,9.0,75,0.00,,BKN250,0.00,VWS V14.01,2013-05-06 19:31:00,
2013-05-06 14:35:00,53.0,44.2,29.98,ENE,59,4.0,9.0,72,0.00,,SCT250,0.00,VWS V14.01,2013-05-06 19:35:00,
2013-05-06 14:36:00,53.2,44.4,29.98,NE,45,3.0,8.0,72,0.00,,BKN250,0.00,VWS V14.01,2013-05-06 19:36:00,
2013-05-06 14:40:00,53.3,43.8,29.98,NE,49,3.0,8.0,70,0.00,,SCT250,0.00,VWS V14.01,2013-05-06 19:40:00,
2013-05-06 14:42:00,53.5,44.3,29.98,NE,50,3.0,8.0,71,0.00,,BKN250,0.00,VWS V14.01,2013-05-06 19:42:00,
2013-05-06 14:45:00,53.7,43.8,29.98,NE,42,4.0,7.0,69,0.00,,SCT250,0.00,VWS V14.01,2013-05-06 19:45:00,
2013-05-06 14:47:00,54.1,44.2,29.98,ENE,71,5.0,7.0,69,0.00,,BKN250,0.00,VWS V14.01,2013-05-06 19:47:00,
2013-05-06 14:50:00,54.2,44.6,29.98,NE,46,5.0,7.0,70,0.00,,SCT250,0.00,VWS V14.01,2013-05-06 19:50:00,
2013-05-06 14:52:00,54.3,44.0,29.98,East,79,3.0,7.0,68,0.00,,BKN250,0.00,VWS V14.01,2013-05-06 19:52:00,
2013-05-06 14:55:00,54.5,44.2,29.98,NE,49,5.0,8.0,68,0.00,,SCT250,0.00,VWS V14.01,2013-05-06 19:55:00,
2013-05-06 14:57:00,54.8,44.8,29.97,NE,49,5.0,8.0,69,0.00,,BKN250,0.00,VWS V14.01,2013-05-06 19:57:00,
2013-05-06 15:00:00,55.0,45.0,29.97,NE,43,3.0,7.0,69,0.00,,SCT250,0.00,VWS V14.01,2013-05-06 20:00:00,
2013-05-06 15:02:00,55.0,43.5,29.97,ENE,60,5.0,8.0,65,0.00,,BKN250,0.00,VWS V14.01,2013-05-06 20:02:00,
2013-05-06 15:05:00,55.1,43.6,29.97,NE,55,5.0,8.0,65,0.00,,SCT250,0.00,VWS V14.01,2013-05-06 20:05:00,
2013-05-06 15:07:00,55.3,44.5,29.97,NE,54,5.0,8.0,67,0.00,,BKN250,0.00,VWS V14.01,2013-05-06 20:07:00,
2013-05-06 15:10:00,55.4,44.2,29.97,ENE,75,5.0,8.0,66,0.00,,SCT250,0.00,VWS V14.01,2013-05-06 20:10:00,
2013-05-06 15:12:00,55.7,43.7,29.97,ENE,69,7.0,8.0,64,0.00,,BKN250,0.00,VWS V14.01,2013-05-06 20:12:00,
2013-05-06 15:15:00,55.7,43.7,29.97,ENE,74,7.0,7.0,64,0.00,,SCT250,0.00,VWS V14.01,2013-05-06 20:15:00,
2013-05-06 15:17:00,55.7,44.1,29.97,ENE,58,5.0,9.0,65,0.00,,BKN250,0.00,VWS V14.01,2013-05-06 20:17:00,
2013-05-06 15:20:00,55.7,44.1,29.97,ENE,63,1.0,9.0,65,0.00,,SCT250,0.00,VWS V14.01,2013-05-06 20:20:00,
2013-05-06 15:22:00,55.8,43.8,29.97,ENE,58,7.0,9.0,64,0.00,,BKN250,0.00,VWS V14.01,2013-05-06 20:22:00,
2013-05-06 15:25:00,55.7,43.7,29.97,NE,53,6.0,9.0,64,0.00,,SCT250,0.00,VWS V14.01,2013-05-06 20:25:00,
2013-05-06 15:27:00,55.6,42.8,29.96,NE,44,5.0,8.0,62,0.00,,BKN250,0.00,VWS V14.01,2013-05-06 20:27:00,
2013-05-06 15:30:00,55.7,42.9,29.96,NE,48,4.0,8.0,62,0.00,,SCT250,0.00,VWS V14.01,2013-05-06 20:30:00,
2013-05-06 15:32:00,56.4,42.3,29.96,NE,36,10.0,11.0,59,0.00,,BKN250,0.00,VWS V14.01,2013-05-06 20:32:00,
2013-05-06 15:35:00,56.6,42.5,29.96,NE,48,6.0,11.0,59,0.00,,SCT250,0.00,VWS V14.01,2013-05-06 20:35:00,
2013-05-06 15:37:00,56.0,42.8,29.96,ENE,57,7.0,10.0,61,0.00,,BKN250,0.00,VWS V14.01,2013-05-06 20:37:00,
2013-05-06 15:40:00,55.8,42.6,29.96,ENE,57,10.0,10.0,61,0.00,,SCT250,0.00,VWS V14.01,2013-05-06 20:40:00,
2013-05-06 15:42:00,55.4,43.0,29.96,ENE,57,10.0,13.0,63,0.00,,BKN250,0.00,VWS V14.01,2013-05-06 20:42:00,
2013-05-06 15:45:00,55.2,42.8,29.96,North,360,5.0,13.0,63,0.00,,SCT250,0.00,VWS V14.01,2013-05-06 20:45:00,
2013-05-06 15:48:00,54.7,43.2,29.96,NE,45,5.0,13.0,65,0.00,,BKN250,0.00,VWS V14.01,2013-05-06 20:48:00,
2013-05-06 15:50:00,54.7,43.2,29.96,NE,56,5.0,13.0,65,0.00,,SCT250,0.00,VWS V14.01,2013-05-06 20:50:00,
2013-05-06 15:53:00,54.7,43.2,29.96,NE,49,3.0,8.0,65,0.00,,BKN250,0.00,VWS V14.01,2013-05-06 20:53:00,
2013-05-06 15:55:00,54.8,43.3,29.96,NE,38,0.0,8.0,65,0.00,,SCT250,0.00,VWS V14.01,2013-05-06 20:55:00,
2013-05-06 15:58:00,55.1,43.2,29.96,NE,54,4.0,8.0,64,0.00,,BKN250,0.00,VWS V14.01,2013-05-06 20:58:00,
2013-05-06 16:00:00,55.2,42.4,29.95,NE,34,6.0,8.0,62,0.00,,SCT250,0.00,VWS V14.01,2013-05-06 21:00:00,
2013-05-06 16:03:00,55.9,43.1,29.95,NE,45,5.0,9.0,62,0.00,,BKN250,0.00,VWS V14.01,2013-05-06 21:03:00,
2013-05-06 16:05:00,55.9,43.1,29.95,NE,49,6.0,9.0,62,0.00,,SCT250,0.00,VWS V14.01,2013-05-06 21:05:00,
2013-05-06 16:08:00,55.4,42.6,29.95,NE,55,3.0,9.0,62,0.00,,BKN250,0.00,VWS V14.01,2013-05-06 21:08:00,
2013-05-06 16:10:00,55.4,43.0,29.95,NE,40,8.0,9.0,63,0.00,,SCT250,0.00,VWS V14.01,2013-05-06 21:10:00,
2013-05-06 16:13:00,55.4,42.2,29.95,NE,54,1.0,8.0,61,0.00,,BKN250,0.00,VWS V14.01,2013-05-06 21:13:00,
2013-05-06 16:15:00,55.6,42.4,29.95,NE,53,0.0,8.0,61,0.00,,SCT250,0.00,VWS V14.01,2013-05-06 21:15:00,
2013-05-06 16:18:00,56.6,42.5,29.95,NE,42,0.0,5.0,59,0.00,,BKN250,0.00,VWS V14.01,2013-05-06 21:18:00,
2013-05-06 16:20:00,56.7,42.5,29.95,NE,36,0.0,5.0,59,0.00,,SCT250,0.00,VWS V14.01,2013-05-06 21:20:00,
2013-05-06 16:23:00,57.8,42.7,29.95,NE,48,0.0,0.0,57,0.00,,BKN250,0.00,VWS V14.01,2013-05-06 21:23:00,
2013-05-06 16:25:00,57.9,42.3,29.95,NE,51,0.0,0.0,56,0.00,,SCT250,0.00,VWS V14.01,2013-05-06 21:25:00,
2013-05-06 16:28:00,58.2,42.1,29.95,ENE,63,2.0,7.0,55,0.00,,BKN250,0.00,VWS V14.01,2013-05-06 21:28:00,
2013-05-06 16:30:00,58.2,41.7,29.95,ENE,57,1.0,7.0,54,0.00,,SCT250,0.00,VWS V14.01,2013-05-06 21:30:00,
2013-05-06 16:33:00,56.2,43.4,29.95,ENE,68,3.0,7.0,62,0.00,,BKN250,0.00,VWS V14.01,2013-05-06 21:33:00,
2013-05-06 16:35:00,56.1,43.3,29.95,ENE,71,4.0,7.0,62,0.00,,SCT250,0.00,VWS V14.01,2013-05-06 21:35:00,
2013-05-06 16:38:00,54.9,43.0,29.95,NE,44,5.0,7.0,64,0.00,,BKN250,0.00,VWS V14.01,2013-05-06 21:38:00,
2013-05-06 16:40:00,54.9,43.0,29.95,NE,45,3.0,7.0,64,0.00,,SCT250,0.00,VWS V14.01,2013-05-06 21:40:00,
2013-05-06 16:43:00,56.0,41.5,29.95,NE,46,0.0,7.0,58,0.00,,BKN250,0.00,VWS V14.01,2013-05-06 21:43:00,
2013-05-06 16:45:00,56.1,41.5,29.95,NE,45,0.0,7.0,58,0.00,,SCT250,0.00,VWS V14.01,2013-05-06 21:45:00,
2013-05-06 16:48:00,57.2,43.0,29.94,NE,39,3.0,6.0,59,0.00,,BKN250,0.00,VWS V14.01,2013-05-06 21:48:00,
2013-05-06 16:50:00,57.2,43.0,29.94,NE,42,3.0,6.0,59,0.00,,SCT250,0.00,VWS V14.01,2013-05-06 21:50:00,
2013-05-06 16:54:00,57.5,41.9,29.95,NE,42,0.0,7.0,56,0.00,,BKN250,0.00,VWS V14.01,2013-05-06 21:54:00,
2013-05-06 16:55:00,57.5,41.9,29.95,NE,42,0.0,7.0,56,0.00,,SCT250,0.00,VWS V14.01,2013-05-06 21:55:00,
2013-05-06 16:59:00,58.6,41.0,29.94,NE,47,0.0,5.0,52,0.00,,BKN250,0.00,VWS V14.01,2013-05-06 21:59:00,
2013-05-06 17:00:00,58.6,41.0,29.94,NE,47,0.0,5.0,52,0.00,,SCT250,0.00,VWS V14.01,2013-05-06 22:00:00,
2013-05-06 17:04:00,60.3,39.5,29.95,ENE,75,7.0,9.0,46,0.00,,BKN250,0.00,VWS V14.01,2013-05-06 22:04:00,
2013-05-06 17:05:00,60.3,39.5,29.95,ENE,75,7.0,9.0,46,0.00,,SCT250,0.00,VWS V14.01,2013-05-06 22:05:00,
2013-05-06 17:09:00,56.7,43.0,29.95,ENE,78,4.0,9.0,60,0.00,,BKN250,0.00,VWS V14.01,2013-05-06 22:09:00,
2013-05-06 17:10:00,56.7,43.0,29.95,ENE,78,4.0,9.0,60,0.00,,SCT250,0.00,VWS V14.01,2013-05-06 22:10:00,
2013-05-06 17:14:00,53.8,42.7,29.95,NE,53,7.0,12.0,66,0.00,,BKN250,0.00,VWS V14.01,2013-05-06 22:14:00,
2013-05-06 17:15:00,53.8,42.7,29.95,NE,53,7.0,12.0,66,0.00,,SCT250,0.00,VWS V14.01,2013-05-06 22:15:00,
2013-05-06 17:19:00,52.4,42.5,29.95,ENE,62,0.0,8.0,69,0.00,,BKN250,0.00,VWS V14.01,2013-05-06 22:19:00,
2013-05-06 17:20:00,52.4,42.5,29.95,ENE,62,0.0,8.0,69,0.00,,SCT250,0.00,VWS V14.01,2013-05-06 22:20:00,
2013-05-06 17:24:00,51.5,41.7,29.95,ENE,67,4.0,8.0,69,0.00,,BKN250,0.00,VWS V14.01,2013-05-06 22:24:00,
2013-05-06 17:25:00,51.5,41.7,29.95,ENE,67,4.0,8.0,69,0.00,,FEW250,0.00,VWS V14.01,2013-05-06 22:25:00,
2013-05-06 17:29:00,51.0,41.6,29.95,NE,46,3.0,8.0,70,0.00,,BKN250,0.00,VWS V14.01,2013-05-06 22:29:00,
2013-05-06 17:30:00,51.0,41.6,29.95,NE,46,3.0,8.0,70,0.00,,SCT250,0.00,VWS V14.01,2013-05-06 22:30:00,
2013-05-06 17:34:00,50.5,41.5,29.95,ENE,75,4.0,9.0,71,0.00,,BKN250,0.00,VWS V14.01,2013-05-06 22:34:00,
2013-05-06 17:35:00,50.5,41.5,29.95,ENE,75,4.0,9.0,71,0.00,,SCT250,0.00,VWS V14.01,2013-05-06 22:35:00,
2013-05-06 17:39:00,50.3,41.6,29.95,NNE,28,2.0,10.0,72,0.00,,BKN250,0.00,VWS V14.01,2013-05-06 22:39:00,
2013-05-06 17:40:00,50.3,41.6,29.95,NNE,28,2.0,10.0,72,0.00,,SCT250,0.00,VWS V14.01,2013-05-06 22:40:00,
2013-05-06 17:44:00,50.3,41.6,29.95,ENE,78,3.0,5.0,72,0.00,,BKN250,0.00,VWS V14.01,2013-05-06 22:44:00,
2013-05-06 17:45:00,50.3,41.6,29.95,ENE,78,3.0,5.0,72,0.00,,SCT250,0.00,VWS V14.01,2013-05-06 22:45:00,
2013-05-06 17:49:00,49.6,41.7,29.95,ENE,77,4.0,7.0,74,0.00,,BKN250,0.00,VWS V14.01,2013-05-06 22:49:00,
2013-05-06 17:50:00,49.6,41.7,29.95,ENE,77,4.0,7.0,74,0.00,,SCT250,0.00,VWS V14.01,2013-05-06 22:50:00,
2013-05-06 17:54:00,49.0,41.4,29.95,East,81,2.0,7.0,75,0.00,,BKN250,0.00,VWS V14.01,2013-05-06 22:54:00,
2013-05-06 17:55:00,49.0,41.4,29.95,East,81,2.0,7.0,75,0.00,,SCT250,0.00,VWS V14.01,2013-05-06 22:55:00,
2013-05-06 17:59:00,48.7,41.5,29.96,East,86,5.0,7.0,76,0.00,,BKN250,0.00,VWS V14.01,2013-05-06 22:59:00,
2013-05-06 18:00:00,48.7,41.5,29.96,East,86,5.0,7.0,76,0.00,,SCT250,0.00,VWS V14.01,2013-05-06 23:00:00,
2013-05-06 18:05:00,48.8,41.6,29.95,NE,38,0.0,4.0,76,0.00,,BKN250,0.00,VWS V14.01,2013-05-06 23:05:00,
2013-05-06 18:10:00,49.0,40.7,29.96,ENE,67,0.0,4.0,73,0.00,,BKN250,0.00,VWS V14.01,2013-05-06 23:10:00,
2013-05-06 18:15:00,49.3,41.0,29.96,ENE,60,4.0,5.0,73,0.00,,BKN250,0.00,VWS V14.01,2013-05-06 23:15:00,
2013-05-06 18:20:00,49.2,41.3,29.96,ENE,57,0.0,3.0,74,0.00,,BKN250,0.00,VWS V14.01,2013-05-06 23:20:00,
2013-05-06 18:25:00,49.1,40.8,29.96,NE,50,0.0,5.0,73,0.00,,BKN250,0.00,VWS V14.01,2013-05-06 23:25:00,
2013-05-06 18:30:00,49.1,40.8,29.96,NE,36,0.0,3.0,73,0.00,,BKN250,0.00,VWS V14.01,2013-05-06 23:30:00,
2013-05-06 18:35:00,49.0,40.7,29.96,NE,38,0.0,4.0,73,0.00,,BKN250,0.00,VWS V14.01,2013-05-06 23:35:00,
2013-05-06 18:40:00,49.2,40.9,29.96,NE,38,0.0,0.0,73,0.00,,BKN250,0.00,VWS V14.01,2013-05-06 23:40:00,
2013-05-06 18:45:00,49.6,41.0,29.96,NNE,15,0.0,4.0,72,0.00,,BKN250,0.00,VWS V14.01,2013-05-06 23:45:00,
2013-05-06 18:50:00,50.0,40.6,29.96,NNE,28,0.0,4.0,70,0.00,,BKN250,0.00,VWS V14.01,2013-05-06 23:50:00,
2013-05-06 18:55:00,50.5,40.7,29.96,NNE,17,0.0,2.0,69,0.00,,BKN250,0.00,VWS V14.01,2013-05-06 23:55:00,
2013-05-06 19:00:00,50.9,40.3,29.96,NNE,33,0.0,6.0,67,0.00,,BKN250,0.00,VWS V14.01,2013-05-07 00:00:00,
2013-05-06 19:05:00,51.4,40.0,29.96,NNE,32,0.0,0.0,65,0.00,,BKN250,0.00,VWS V14.01,2013-05-07 00:05:00,
2013-05-06 19:10:00,51.7,39.9,29.96,NNE,24,3.0,5.0,64,0.00,,BKN250,0.00,VWS V14.01,2013-05-07 00:10:00,
2013-05-06 19:15:00,52.0,40.2,29.96,NNE,19,2.0,2.0,64,0.00,,BKN250,0.00,VWS V14.01,2013-05-07 00:15:00,
2013-05-06 19:20:00,52.2,39.6,29.96,NNE,18,0.0,3.0,62,0.00,,BKN250,0.00,VWS V14.01,2013-05-07 00:20:00,
2013-05-06 19:25:00,52.3,39.7,29.96,NNE,18,0.0,0.0,62,0.00,,SCT250,0.00,VWS V14.01,2013-05-07 00:25:00,
2013-05-06 19:26:00,52.4,39.8,29.96,NNE,26,0.0,1.0,62,0.00,,BKN250,0.00,VWS V14.01,2013-05-07 00:26:00,
2013-05-06 19:30:00,52.4,39.4,29.96,NNE,19,0.0,2.0,61,0.00,,FEW070,0.00,VWS V14.01,2013-05-07 00:30:00,
2013-05-06 19:31:00,52.3,39.3,29.97,NNE,19,0.0,2.0,61,0.00,,BKN250,0.00,VWS V14.01,2013-05-07 00:31:00,
2013-05-06 19:35:00,52.1,39.5,29.97,NNE,17,0.0,0.0,62,0.00,,FEW250,0.00,VWS V14.01,2013-05-07 00:35:00,
2013-05-06 19:36:00,51.9,40.1,29.97,NNE,17,0.0,0.0,64,0.00,,BKN250,0.00,VWS V14.01,2013-05-07 00:36:00,
2013-05-06 19:40:00,51.8,40.4,29.97,NNE,22,0.0,0.0,65,0.00,,SCT250,0.00,VWS V14.01,2013-05-07 00:40:00,
2013-05-06 19:41:00,51.5,40.1,29.96,NNE,23,0.0,5.0,65,0.00,,BKN250,0.00,VWS V14.01,2013-05-07 00:41:00,
2013-05-06 19:45:00,51.4,40.4,29.96,NNE,23,0.0,5.0,66,0.00,,SCT250,0.00,VWS V14.01,2013-05-07 00:45:00,
2013-05-06 19:46:00,51.2,40.2,29.97,NNE,22,0.0,0.0,66,0.00,,BKN250,0.00,VWS V14.01,2013-05-07 00:46:00,
2013-05-06 19:50:00,51.1,40.5,29.97,NNE,22,0.0,0.0,67,0.00,,SCT250,0.00,VWS V14.01,2013-05-07 00:50:00,
2013-05-06 19:51:00,51.0,40.1,29.97,NNE,22,0.0,0.0,66,0.00,,BKN250,0.00,VWS V14.01,2013-05-07 00:51:00,
2013-05-06 19:55:00,51.0,39.7,29.97,NNE,22,0.0,0.0,65,0.00,,SCT250,0.00,VWS V14.01,2013-05-07 00:55:00,
2013-05-06 19:56:00,51.0,39.7,29.97,NNE,21,0.0,0.0,65,0.00,,BKN250,0.00,VWS V14.01,2013-05-07 00:56:00,
2013-05-06 20:00:00,50.9,39.6,29.97,NNE,22,0.0,0.0,65,0.00,,SCT250,0.00,VWS V14.01,2013-05-07 01:00:00,
2013-05-06 20:01:00,50.9,39.6,29.97,NNE,20,0.0,0.0,65,0.00,,BKN250,0.00,VWS V14.01,2013-05-07 01:01:00,
2013-05-06 20:05:00,50.9,39.6,29.97,NNE,20,0.0,0.0,65,0.00,,SCT250,0.00,VWS V14.01,2013-05-07 01:05:00,
2013-05-06 20:06:00,50.9,39.6,29.97,NNE,20,0.0,0.0,65,0.00,,BKN250,0.00,VWS V14.01,2013-05-07 01:06:00,
2013-05-06 20:10:00,50.8,39.1,29.97,NNE,20,0.0,0.0,64,0.00,,SCT250,0.00,VWS V14.01,2013-05-07 01:10:00,
2013-05-06 20:11:00,50.8,39.1,29.97,NNE,19,0.0,0.0,64,0.00,,BKN250,0.00,VWS V14.01,2013-05-07 01:11:00,
2013-05-06 20:15:00,50.8,39.1,29.97,NNE,19,0.0,0.0,64,0.00,,SCT250,0.00,VWS V14.01,2013-05-07 01:15:00,
2013-05-06 20:16:00,50.7,39.4,29.97,NNE,19,0.0,0.0,65,0.00,,BKN250,0.00,VWS V14.01,2013-05-07 01:16:00,
2013-05-06 20:20:00,50.7,39.4,29.97,NNE,24,0.0,3.0,65,0.00,,SCT250,0.00,VWS V14.01,2013-05-07 01:20:00,
2013-05-06 20:21:00,50.6,39.3,29.97,NNE,24,0.0,3.0,65,0.00,,BKN250,0.00,VWS V14.01,2013-05-07 01:21:00,
2013-05-06 20:25:00,50.6,39.3,29.97,NNE,22,0.0,0.0,65,0.00,,SCT250,0.00,VWS V14.01,2013-05-07 01:25:00,
2013-05-06 20:26:00,50.6,39.3,29.97,NNE,22,0.0,0.0,65,0.00,,BKN250,0.00,VWS V14.01,2013-05-07 01:26:00,
2013-05-06 20:30:00,50.5,39.2,29.97,NNE,22,0.0,0.0,65,0.00,,SCT250,0.00,VWS V14.01,2013-05-07 01:30:00,
2013-05-06 20:31:00,50.5,39.2,29.97,NNE,22,0.0,0.0,65,0.00,,BKN250,0.00,VWS V14.01,2013-05-07 01:31:00,
2013-05-06 20:35:00,50.5,39.2,29.97,NNE,22,0.0,0.0,65,0.00,,SCT250,0.00,VWS V14.01,2013-05-07 01:35:00,
2013-05-06 20:36:00,50.4,39.1,29.98,NNE,22,0.0,0.0,65,0.00,,BKN250,0.00,VWS V14.01,2013-05-07 01:36:00,
2013-05-06 20:40:00,50.4,39.1,29.98,NNE,22,0.0,0.0,65,0.00,,SCT250,0.00,VWS V14.01,2013-05-07 01:40:00,
2013-05-06 20:42:00,50.4,38.7,29.98,NNE,18,0.0,0.0,64,0.00,,BKN250,0.00,VWS V14.01,2013-05-07 01:42:00,
2013-05-06 20:45:00,50.4,38.7,29.98,NNE,18,0.0,0.0,64,0.00,,SCT250,0.00,VWS V14.01,2013-05-07 01:45:00,
2013-05-06 20:47:00,50.4,38.7,29.98,NNE,19,0.0,0.0,64,0.00,,BKN250,0.00,VWS V14.01,2013-05-07 01:47:00,
2013-05-06 20:50:00,50.3,38.6,29.98,NNE,19,0.0,0.0,64,0.00,,SCT250,0.00,VWS V14.01,2013-05-07 01:50:00,
2013-05-06 20:52:00,50.3,38.6,29.98,NNE,16,0.0,0.0,64,0.00,,BKN250,0.00,VWS V14.01,2013-05-07 01:52:00,
2013-05-06 20:55:00,50.3,38.6,29.98,NNE,16,0.0,0.0,64,0.00,,SCT250,0.00,VWS V14.01,2013-05-07 01:55:00,
2013-05-06 20:57:00,50.3,38.2,29.98,NNE,15,0.0,0.0,63,0.00,,BKN250,0.00,VWS V14.01,2013-05-07 01:57:00,
2013-05-06 21:00:00,50.3,38.2,29.98,NNE,15,0.0,0.0,63,0.00,,SCT250,0.00,VWS V14.01,2013-05-07 02:00:00,
2013-05-06 21:02:00,50.3,38.2,29.98,NNE,15,0.0,0.0,63,0.00,,BKN250,0.00,VWS V14.01,2013-05-07 02:02:00,
2013-05-06 21:05:00,50.4,38.3,29.98,NNE,15,0.0,2.0,63,0.00,,SCT250,0.00,VWS V14.01,2013-05-07 02:05:00,
2013-05-06 21:07:00,50.4,38.3,29.98,NNE,20,0.0,0.0,63,0.00,,BKN250,0.00,VWS V14.01,2013-05-07 02:07:00,
2013-05-06 21:10:00,50.5,38.4,29.98,NNE,19,0.0,0.0,63,0.00,,SCT250,0.00,VWS V14.01,2013-05-07 02:10:00,
2013-05-06 21:12:00,50.5,38.4,29.98,NNE,18,0.0,0.0,63,0.00,,BKN250,0.00,VWS V14.01,2013-05-07 02:12:00,
2013-05-06 21:15:00,50.6,38.1,29.98,NNE,23,0.0,0.0,62,0.00,,SCT250,0.00,VWS V14.01,2013-05-07 02:15:00,
2013-05-06 21:17:00,50.7,38.2,29.98,NNE,30,1.0,3.0,62,0.00,,BKN250,0.00,VWS V14.01,2013-05-07 02:17:00,
2013-05-06 21:20:00,50.8,38.3,29.98,NNE,33,2.0,5.0,62,0.00,,SCT250,0.00,VWS V14.01,2013-05-07 02:20:00,
2013-05-06 21:22:00,51.2,38.2,29.98,NNE,30,0.0,5.0,61,0.00,,BKN250,0.00,VWS V14.01,2013-05-07 02:22:00,
2013-05-06 21:25:00,51.3,38.3,29.98,North,360,2.0,6.0,61,0.00,,SCT250,0.00,VWS V14.01,2013-05-07 02:25:00,
2013-05-06 21:27:00,51.6,38.2,29.98,NNE,32,0.0,6.0,60,0.00,,BKN250,0.00,VWS V14.01,2013-05-07 02:27:00,
2013-05-06 21:30:00,51.6,38.2,29.98,NNE,32,0.0,3.0,60,0.00,,SCT250,0.00,VWS V14.01,2013-05-07 02:30:00,
2013-05-06 21:32:00,51.7,37.8,29.99,NNE,30,0.0,0.0,59,0.00,,BKN250,0.00,VWS V14.01,2013-05-07 02:32:00,
2013-05-06 21:35:00,51.8,37.9,29.99,NNE,30,0.0,0.0,59,0.00,,SCT250,0.00,VWS V14.01,2013-05-07 02:35:00,
2013-05-06 21:37:00,51.8,37.9,29.99,NNE,30,0.0,0.0,59,0.00,,BKN250,0.00,VWS V14.01,2013-05-07 02:37:00,
2013-05-06 21:40:00,51.9,38.0,29.99,NNE,30,0.0,0.0,59,0.00,,SCT250,0.00,VWS V14.01,2013-05-07 02:40:00,
2013-05-06 21:42:00,51.9,38.0,29.99,NNE,30,0.0,0.0,59,0.00,,BKN250,0.00,VWS V14.01,2013-05-07 02:42:00,
2013-05-06 21:45:00,51.9,38.0,29.99,NNE,30,0.0,0.0,59,0.00,,SCT250,0.00,VWS V14.01,2013-05-07 02:45:00,
2013-05-06 21:47:00,51.9,38.0,29.99,NNE,30,0.0,0.0,59,0.00,,BKN250,0.00,VWS V14.01,2013-05-07 02:47:00,
2013-05-06 21:50:00,51.9,38.0,29.99,NNE,30,0.0,0.0,59,0.00,,SCT250,0.00,VWS V14.01,2013-05-07 02:50:00,
2013-05-06 21:52:00,51.7,38.3,29.99,NNE,30,0.0,0.0,60,0.00,,BKN250,0.00,VWS V14.01,2013-05-07 02:52:00,
2013-05-06 21:55:00,51.6,38.2,29.98,NNE,30,0.0,0.0,60,0.00,,SCT250,0.00,VWS V14.01,2013-05-07 02:55:00,
2013-05-06 21:58:00,51.4,38.8,29.99,NNE,30,0.0,0.0,62,0.00,,BKN250,0.00,VWS V14.01,2013-05-07 02:58:00,
2013-05-06 22:00:00,51.3,38.7,29.99,NNE,30,0.0,0.0,62,0.00,,SCT250,0.00,VWS V14.01,2013-05-07 03:00:00,
2013-05-06 22:03:00,51.0,38.9,29.99,NNE,30,0.0,0.0,63,0.00,,BKN250,0.00,VWS V14.01,2013-05-07 03:03:00,
2013-05-06 22:05:00,50.9,38.8,29.99,NNE,30,0.0,0.0,63,0.00,,SCT250,0.00,VWS V14.01,2013-05-07 03:05:00,
2013-05-06 22:08:00,50.7,39.0,29.99,NNE,30,0.0,2.0,64,0.00,,BKN250,0.00,VWS V14.01,2013-05-07 03:08:00,
2013-05-06 22:10:00,50.6,38.9,29.99,NNE,30,0.0,2.0,64,0.00,,SCT250,0.00,VWS V14.01,2013-05-07 03:10:00,
2013-05-06 22:13:00,50.5,38.8,29.98,NNE,30,0.0,0.0,64,0.00,,BKN250,0.00,VWS V14.01,2013-05-07 03:13:00,
2013-05-06 22:15:00,50.5,38.8,29.98,NNE,30,0.0,0.0,64,0.00,,SCT250,0.00,VWS V14.01,2013-05-07 03:15:00,
2013-05-06 22:18:00,50.5,38.8,29.98,NNE,30,0.0,4.0,64,0.00,,BKN250,0.00,VWS V14.01,2013-05-07 03:18:00,
2013-05-06 22:20:00,50.6,38.9,29.98,NNE,30,0.0,4.0,64,0.00,,SCT250,0.00,VWS V14.01,2013-05-07 03:20:00,
2013-05-06 22:23:00,50.7,39.0,29.98,NNE,30,0.0,0.0,64,0.00,,BKN250,0.00,VWS V14.01,2013-05-07 03:23:00,
2013-05-06 22:25:00,50.7,38.6,29.98,NNE,30,0.0,1.0,63,0.00,,SCT250,0.00,VWS V14.01,2013-05-07 03:25:00,
2013-05-06 22:28:00,50.7,39.0,29.98,NNE,30,0.0,0.0,64,0.00,,BKN250,0.00,VWS V14.01,2013-05-07 03:28:00,
2013-05-06 22:30:00,50.8,39.1,29.98,NNE,30,0.0,0.0,64,0.00,,SCT250,0.00,VWS V14.01,2013-05-07 03:30:00,
2013-05-06 22:33:00,50.8,39.1,29.98,NNE,30,0.0,0.0,64,0.00,,BKN250,0.00,VWS V14.01,2013-05-07 03:33:00,
2013-05-06 22:35:00,50.8,39.1,29.98,NNE,30,0.0,0.0,64,0.00,,SCT250,0.00,VWS V14.01,2013-05-07 03:35:00,
2013-05-06 22:38:00,50.9,39.2,29.98,NNE,30,0.0,0.0,64,0.00,,BKN250,0.00,VWS V14.01,2013-05-07 03:38:00,
2013-05-06 22:40:00,50.9,39.2,29.98,NNE,30,0.0,0.0,64,0.00,,SCT250,0.00,VWS V14.01,2013-05-07 03:40:00,
2013-05-06 22:43:00,50.8,39.1,29.98,NNE,30,0.0,0.0,64,0.00,,BKN250,0.00,VWS V14.01,2013-05-07 03:43:00,
2013-05-06 22:45:00,50.9,39.2,29.98,NNE,30,0.0,0.0,64,0.00,,SCT250,0.00,VWS V14.01,2013-05-07 03:45:00,
2013-05-06 22:48:00,50.9,39.6,29.98,NNE,30,0.0,0.0,65,0.00,,BKN250,0.00,VWS V14.01,2013-05-07 03:48:00,
2013-05-06 22:50:00,50.9,39.6,29.98,NNE,30,0.0,0.0,65,0.00,,SCT250,0.00,VWS V14.01,2013-05-07 03:50:00,
2013-05-06 22:53:00,50.9,39.2,29.98,NNE,30,0.0,0.0,64,0.00,,BKN250,0.00,VWS V14.01,2013-05-07 03:53:00,
2013-05-06 22:55:00,50.9,39.2,29.98,NNE,30,0.0,0.0,64,0.00,,SCT250,0.00,VWS V14.01,2013-05-07 03:55:00,
2013-05-06 22:58:00,50.9,39.2,29.98,NNE,30,0.0,0.0,64,0.00,,BKN250,0.00,VWS V14.01,2013-05-07 03:58:00,
2013-05-06 23:00:00,50.9,39.2,29.98,NNE,30,0.0,0.0,64,0.00,,SCT250,0.00,VWS V14.01,2013-05-07 04:00:00,
2013-05-06 23:02:00,50.9,39.2,29.98,NNE,30,0.0,0.0,64,0.00,,SCT250,0.00,VWS V14.01,2013-05-07 04:02:00,
2013-05-06 23:03:00,50.9,39.2,29.98,NNE,30,0.0,0.0,64,0.00,,SCT250,0.00,VWS V14.01,2013-05-07 04:03:00,
2013-05-06 23:04:00,50.9,39.2,29.98,NNE,30,0.0,0.0,64,0.00,,SCT250,0.00,VWS V14.01,2013-05-07 04:04:00,
2013-05-06 23:05:00,50.9,39.2,29.98,NNE,30,0.0,0.0,64,0.00,,SCT250,0.00,VWS V14.01,2013-05-07 04:05:00,
2013-05-06 23:10:00,51.0,39.3,29.98,NNE,30,0.0,0.0,64,0.00,,SCT250,0.00,VWS V14.01,2013-05-07 04:10:00,
2013-05-06 23:12:00,51.0,38.9,29.97,NNE,30,0.0,0.0,63,0.00,,SCT250,0.00,VWS V14.01,2013-05-07 04:12:00,
2013-05-06 23:15:00,51.0,38.9,29.98,NNE,30,0.0,0.0,63,0.00,,SCT250,0.00,VWS V14.01,2013-05-07 04:15:00,
2013-05-06 23:17:00,50.9,39.2,29.97,NNE,30,0.0,0.0,64,0.00,,SCT250,0.00,VWS V14.01,2013-05-07 04:17:00,
2013-05-06 23:20:00,50.9,39.2,29.98,NNE,30,0.0,0.0,64,0.00,,SCT250,0.00,VWS V14.01,2013-05-07 04:20:00,
2013-05-06 23:22:00,50.9,39.2,29.98,NNE,30,0.0,0.0,64,0.00,,SCT250,0.00,VWS V14.01,2013-05-07 04:22:00,
2013-05-06 23:25:00,50.9,39.2,29.98,NNE,30,0.0,0.0,64,0.00,,SCT250,0.00,VWS V14.01,2013-05-07 04:25:00,
2013-05-06 23:27:00,50.8,39.1,29.98,NNE,30,0.0,0.0,64,0.00,,SCT250,0.00,VWS V14.01,2013-05-07 04:27:00,
2013-05-06 23:30:00,50.7,39.4,29.98,NNE,30,0.0,0.0,65,0.00,,SCT250,0.00,VWS V14.01,2013-05-07 04:30:00,
2013-05-06 23:32:00,50.7,39.4,29.97,NNE,30,0.0,0.0,65,0.00,,SCT250,0.00,VWS V14.01,2013-05-07 04:32:00,
2013-05-06 23:35:00,50.7,39.0,29.97,NNE,30,0.0,0.0,64,0.00,,SCT250,0.00,VWS V14.01,2013-05-07 04:35:00,
2013-05-06 23:37:00,50.9,39.2,29.97,NNE,30,0.0,0.0,64,0.00,,SCT250,0.00,VWS V14.01,2013-05-07 04:37:00,
2013-05-06 23:40:00,51.0,39.3,29.97,NNE,30,0.0,0.0,64,0.00,,SCT250,0.00,VWS V14.01,2013-05-07 04:40:00,
2013-05-06 23:42:00,51.1,39.0,29.98,NNE,30,0.0,2.0,63,0.00,,SCT250,0.00,VWS V14.01,2013-05-07 04:42:00,
2013-05-06 23:45:00,51.1,39.4,29.98,NNE,30,0.0,2.0,64,0.00,,SCT250,0.00,VWS V14.01,2013-05-07 04:45:00,
2013-05-06 23:47:00,50.9,39.2,29.98,NNE,30,0.0,0.0,64,0.00,,SCT250,0.00,VWS V14.01,2013-05-07 04:47:00,
2013-05-06 23:50:00,50.8,39.5,29.98,NNE,30,0.0,0.0,65,0.00,,SCT250,0.00,VWS V14.01,2013-05-07 04:50:00,
2013-05-06 23:52:00,50.5,39.6,29.97,NNE,30,0.0,0.0,66,0.00,,SCT250,0.00,VWS V14.01,2013-05-07 04:52:00,
2013-05-06 23:55:00,50.5,39.6,29.97,NNE,30,0.0,0.0,66,0.00,,SCT250,0.00,VWS V14.01,2013-05-07 04:55:00,
2013-05-06 23:57:00,50.5,40.0,29.97,NNE,30,0.0,0.0,67,0.00,,SCT250,0.00,VWS V14.01,2013-05-07 04:57:00,